Location: Brno
(49.2000°N, 16.6330°E)
Time: 17:35:02
(UTC+02:00)

Transit 4A - Pass Details

Date: 28 July 2021
Orbit: 871 x 974 km, 66.8° (Epoch: 16 September)

Event Time Altitude Azimuth Distance (km) Brightness Sun altitude
Rises 08:52:14 0° 325° (NW) 3,470 10.5 32.4°
Reaches altitude 10° 08:54:55 10° 334° (NNW) 2,533 10.0 32.8°
Maximum altitude 09:00:17 36° 40° (NE) 1,362 9.5 33.7°
Drops below altitude 10° 09:05:43 10° 107° (ESE) 2,560 11.6 34.6°
Sets 09:08:26 0° 116° (ESE) 3,512 11.9 35.0°
